{"data":{"norad_id":64252,"epoch":"2026-05-24T22:59:36.678624Z","epoch_age_seconds":71901,"freshness":"FRESH","line1":"1 64252U 25119V   26144.95806341  .00028261  00000+0  10314-2 0  9999","line2":"2 64252  42.9975 236.3190 0000348 330.6919  29.3913 15.27615730 55832","mean_motion":15.2761573,"eccentricity":3.48e-5,"inclination_deg":42.9975,"raan_deg":236.319,"arg_perigee_deg":330.6919,"mean_anomaly_deg":29.3913,"bstar":0.0010314,"rev_number":5583,"period_min":94.264543871907,"perigee_km":482.70334409817,"apogee_km":483.1808752042,"semimajor_km":6861.0791096512,"source":"CELESTRAK","updated_at":"2026-05-25T13:38:20.355383Z"}}